Waarnemingen

Advertentie
Mijn weer
St-Auban-Sur-Durance, Frankrijk (7588): temperatuur & dauwpunt: 17.01.2018 08:00:00 - 23.01.2018 08:00:00 (CET)St-Auban-Sur-Durance, Frankrijk (7588): temperatuur 5cm: 17.01.2018 08:00:00 - 23.01.2018 08:00:00 (CET)St-Auban-Sur-Durance, Frankrijk (7588): temperatuur -20cm: 17.01.2018 08:00:00 - 23.01.2018 08:00:00 (CET)St-Auban-Sur-Durance, Frankrijk (7588): windsnelheid & windstoten: 17.01.2018 08:00:00 - 23.01.2018 08:00:00 (CET)St-Auban-Sur-Durance, Frankrijk (7588): windrichting: 17.01.2018 08:00:00 - 23.01.2018 08:00:00 (CET)St-Auban-Sur-Durance, Frankrijk (7588): luchtdruk: 17.01.2018 08:00:00 - 23.01.2018 08:00:00 (CET)St-Auban-Sur-Durance, Frankrijk (7588): zicht: 17.01.2018 08:00:00 - 23.01.2018 08:00:00 (CET)St-Auban-Sur-Durance, Frankrijk (7588): Zonneschijnduur: 17.01.2018 08:00:00 - 23.01.2018 08:00:00 (CET)St-Auban-Sur-Durance, Frankrijk (7588): neerslag: 17.01.2018 08:00:00 - 23.01.2018 08:00:00 (CET)
Datum & Tijd tt [°C] td [°C] tt 5cm [°C] tt -20cm [°C] ff [km/u] ff [kn] fx [km/u] fx [kn] dd ppp [hPa] vv [km] sd [min] rr [mm]
23.01.2018 08:00:00 9,5 3,2 8,7 7,1 23 12 57 31 NNW 1021,4 20 0 0,0
23.01.2018 07:00:00 10,0 3,5 8,9 7,2 34 18 53 29 N 1020,4 20 0 0,0
23.01.2018 06:00:00 10,4 3,7 9,5 7,3 28 15 46 25 N 1019,6 20 0 0,0
23.01.2018 05:00:00 11,0 4,0 7,4 7,3 18 10 32 17 N 1020,0 20 0 0,0
23.01.2018 04:00:00 11,3 3,8 9,6 7,4 9 5 26 14 N 1019,6 20 0 0,0
23.01.2018 03:00:00 11,7 4,2 9,0 7,4 16 8 26 14 N 1018,6 20 0 0,0
23.01.2018 02:00:00 11,9 4,4 10,4 7,5 9 5 26 14 N 1017,9 20 0 0,0
23.01.2018 01:00:00 13,0 3,6 11,3 7,5 13 7 42 23 NNO 1016,9 20 0 0,0
23.01.2018 00:00:00 13,0 3,9 10,9 7,5 26 14 48 26 N 1016,2 20 0 0,0
22.01.2018 23:00:00 12,6 4,0 10,6 7,6 26 14 51 28 N 1015,7 20 0 0,0
22.01.2018 22:00:00 11,7 4,9 8,3 7,6 20 11 31 17 NNW 1015,7 20 0 0,0
22.01.2018 21:00:00 11,5 5,4 8,8 7,6 3 2 41 22 NNO 1016,9 20 0 0,0
22.01.2018 20:00:00 10,8 5,3 8,0 7,6 5 3 13 7 W 1017,5 20 0 0,0
22.01.2018 19:00:00 11,2 4,9 8,7 7,6 3 1 12 6 O 1017,4 20 0 0,0
22.01.2018 18:00:00 12,3 4,8 10,4 7,6 5 3 16 8 WNW 1016,9 20 0 0,0
22.01.2018 17:00:00 12,9 5,1 11,5 7,4 4 2 22 12 W 1016,8 20 0 0,0
22.01.2018 16:00:00 14,4 5,2 13,8 7,3 8 5 28 15 ZW 1015,4 20 0 0,0
22.01.2018 15:00:00 15,8 5,7 16,0 7,1 8 4 33 18 WNW 1015,2 20 0 0,0
22.01.2018 14:00:00 17,0 6,2 17,8 6,9 19 10 36 20 NW 1014,3 20 7 0,0
22.01.2018 13:00:00 17,3 6,8 17,8 6,7 12 6 41 22 N 1015,0 20 8 0,0
22.01.2018 12:00:00 16,5 7,2 17,8 6,5 11 6 32 17 N 1015,6 20 22 0,0
22.01.2018 11:00:00 15,9 7,6 14,6 6,4 3 2 26 14 N 1016,1 20 32 0,0
22.01.2018 10:00:00 14,7 7,0 12,9 6,4 11 6 23 13 NNO 1015,6 20 16 0,0
22.01.2018 09:00:00 13,3 6,2 11,7 6,3 14 8 34 19 NNW 1015,5 20 0 0,0
22.01.2018 08:00:00 12,6 5,5 11,1 6,3 10 6 30 16 NNO 1015,1 20 0 0,0
22.01.2018 07:00:00 13,3 5,0 11,7 6,3 13 7 37 20 NNO 1015,0 20 0 0,0
22.01.2018 06:00:00 13,6 3,9 10,1 6,3 12 6 35 19 N 1014,6 20 0 0,0
22.01.2018 05:00:00 13,7 4,8 10,8 6,3 6 4 53 29 N 1014,2 20 0 0,0
22.01.2018 04:00:00 14,2 5,3 12,3 6,2 11 6 40 22 NNW 1014,2 20 0 0,0
22.01.2018 03:00:00 14,4 5,2 12,6 6,2 8 4 48 26 NNO 1014,2 20 0 0,0
22.01.2018 02:00:00 14,7 4,9 12,7 6,2 25 13 51 27 N 1013,7 20 0 0,0
22.01.2018 01:00:00 14,7 4,7 13,1 6,1 22 12 52 28 NNW 1014,0 20 0 0,0
22.01.2018 00:00:00 14,7 4,4 13,3 6,1 24 13 54 29 NNW 1013,7 20 0 0,0
21.01.2018 23:00:00 15,0 4,7 13,4 6,0 31 17 63 34 NNW 1013,0 20 0 0,0
21.01.2018 22:00:00 14,8 5,6 12,9 6,0 19 10 56 31 N 1013,2 20 0 0,0
21.01.2018 21:00:00 14,6 4,8 12,8 5,9 18 10 47 25 NNW 1013,4 20 0 0,0
21.01.2018 20:00:00 14,3 4,3 12,5 5,9 15 8 40 22 N 1013,3 20 0 0,0
21.01.2018 19:00:00 14,0 4,0 12,4 5,7 16 9 56 30 N 1012,7 20 0 0,0
21.01.2018 18:00:00 14,4 3,8 13,1 5,6 30 16 74 40 N 1011,9 20 2 0,0
21.01.2018 17:00:00 14,2 3,0 13,5 5,5 32 17 75 41 N 1011,3 20 25 0,0
21.01.2018 16:00:00 14,6 2,5 16,1 5,3 35 19 81 44 N 1010,7 20 60 0,0
21.01.2018 15:00:00 14,4 1,3 14,8 5,1 41 22 78 42 N 1009,8 20 60 0,0
21.01.2018 14:00:00 13,8 0,4 14,6 4,9 37 20 80 43 N 1010,2 20 60 0,0
21.01.2018 13:00:00 13,3 0,0 14,7 4,8 35 19 78 42 N 1010,7 20 60 0,0
21.01.2018 12:00:00 12,5 -0,4 13,4 4,7 41 22 72 39 N 1011,2 20 60 0,0
21.01.2018 11:00:00 11,5 -0,7 12,4 4,6 45 24 82 45 N 1010,7 20 60 0,0
21.01.2018 10:00:00 11,0 -0,5 9,4 4,6 49 27 91 49 N 1011,2 20 51 0,0
21.01.2018 09:00:00 9,9 0,5 7,8 4,6 25 13 74 40 N 1011,8 20 17 0,0
21.01.2018 08:00:00 9,0 1,2 6,8 4,6 26 14 56 30 N 1011,9 20 0 0,0
21.01.2018 07:00:00 8,5 2,5 4,8 4,7 23 13 52 28 NNO 1012,1 20 0 0,0
21.01.2018 06:00:00 5,8 5,8 -0,3 4,7 11 6 42 23 ONO 1011,8 20 0 0,0
21.01.2018 05:00:00 1,3 0,7 0,1 4,8 8 4 16 9 OZO 1012,9 20 0 0,0
21.01.2018 04:00:00 1,6 1,0 0,9 4,8 3 2 15 8 NO 1013,0 20 0 0,0
21.01.2018 03:00:00 1,9 1,3 1,0 4,8 7 4 17 9 O 1012,6 20 0 0,2
21.01.2018 02:00:00 1,9 1,2 1,5 4,9 6 4 13 7 NO 1012,3 20 0 0,2
21.01.2018 01:00:00 1,8 1,2 1,5 4,9 6 3 22 12 NO 1013,1 20 0 0,2
21.01.2018 00:00:00 1,7 1,1 1,6 5,0 3 2 15 8 ONO 1013,1 16 0 0,4
20.01.2018 23:00:00 1,7 1,1 1,5 5,1 4 2 14 8 NO 1013,3 20 0 0,6
20.01.2018 22:00:00 1,6 0,9 1,3 5,1 8 5 19 10 NO 1013,6 20 0 0,0
20.01.2018 21:00:00 1,6 0,9 1,0 5,2 7 4 20 11 ONO 1014,0 20 0 0,0
20.01.2018 20:00:00 1,3 0,6 0,2 5,2 9 5 21 11 NO 1014,3 20 0 0,0
20.01.2018 19:00:00 0,8 0,5 0,2 5,3 7 4 11 6 NO 1014,8 14 0 0,8
20.01.2018 18:00:00 0,4 0,1 0,2 5,3 3 2 8 5 ONO 1015,2 4,8 0 0,8
20.01.2018 17:00:00 0,3 0,0 0,2 5,3 5 3 8 5 ONO 1015,7 3,3 0 2,1
20.01.2018 16:00:00 0,4 -0,2 0,2 5,2 3 2 8 5 ONO 1015,8 2,8 0 2,8
20.01.2018 15:00:00 2,4 0,8 2,4 5,2 7 4 17 9 N 1015,9 18 0 2,0
20.01.2018 14:00:00 4,7 0,6 3,5 5,1 5 3 25 14 N 1015,9 16 0 0,4
20.01.2018 13:00:00 7,8 -4,7 9,2 4,9 5 3 13 7 NW 1016,2 20 31 0,0
20.01.2018 12:00:00 7,4 -3,5 9,0 4,9 6 4 16 9 ZO 1017,4 20 42 0,0
20.01.2018 11:00:00 6,0 -3,7 6,8 4,9 10 6 17 9 ZW 1018,3 20 23 0,0
20.01.2018 10:00:00 5,9 -4,9 4,8 5,0 13 7 33 18 N 1018,3 20 45 0,0
20.01.2018 09:00:00 4,6 -5,2 3,1 5,1 25 13 34 18 N 1017,9 20 31 0,0
20.01.2018 08:00:00 4,2 -5,3 2,9 5,2 22 12 37 20 N 1018,0 20 0 0,0
20.01.2018 07:00:00 4,7 -5,4 2,9 5,3 24 13 35 19 N 1017,8 20 0 0,0
20.01.2018 06:00:00 5,1 -6,2 1,5 5,4 6 3 18 10 NNO 1017,6 20 0 0,0
20.01.2018 05:00:00 4,1 -5,1 1,8 5,5 7 4 18 10 O 1018,1 20 0 0,0
20.01.2018 04:00:00 4,9 -4,1 2,8 5,5 6 4 24 13 ZZO 1017,8 20 0 0,0
20.01.2018 03:00:00 5,8 -4,4 3,6 5,7 8 4 33 18 OZO 1017,9 20 0 0,0
20.01.2018 02:00:00 4,8 -1,9 -0,2 5,8 8 4 22 12 O 1017,6 20 0 0,0
20.01.2018 01:00:00 2,6 -2,3 0,3 5,8 5 3 23 12 OZO 1018,2 20 0 0,0
20.01.2018 00:00:00 2,7 -2,0 -0,8 6,0 17 9 25 13 ZW 1017,9 20 0 0,0
19.01.2018 23:00:00 2,4 -2,1 0,2 6,1 6 3 14 8 Z 1018,3 20 0 0,0
19.01.2018 22:00:00 3,1 -2,6 1,3 6,1 2 1 12 7 ZO 1018,1 20 0 0,0
19.01.2018 21:00:00 3,4 -2,6 0,9 6,2 5 3 12 6 ZZW 1017,8 20 0 0,0
19.01.2018 20:00:00 5,0 -2,6 1,9 6,2 4 2 11 6 ZZO 1016,7 20 0 0,0
19.01.2018 19:00:00 7,2 -2,5 5,0 6,2 4 2 18 10 ZO 1015,5 20 0 0,0
19.01.2018 18:00:00 8,6 -3,6 6,5 6,1 8 5 31 17 N 1014,9 20 1 0,0
19.01.2018 17:00:00 10,3 -3,1 10,2 6,0 14 7 44 24 NNW 1013,7 20 52 0,0
19.01.2018 16:00:00 12,2 -2,8 13,3 5,8 16 9 41 22 NNW 1012,6 20 57 0,0
19.01.2018 15:00:00 12,7 -2,4 14,0 5,6 16 9 39 21 N 1011,9 20 55 0,0
19.01.2018 14:00:00 12,6 -2,1 14,2 5,5 22 12 46 25 N 1011,9 20 60 0,0
19.01.2018 13:00:00 12,4 -0,5 14,8 5,4 18 10 48 26 N 1012,3 20 60 0,0
19.01.2018 12:00:00 11,8 0,5 13,5 5,3 30 16 44 24 N 1012,8 20 60 0,0
19.01.2018 11:00:00 7,9 3,5 7,0 5,3 3 2 10 5 ZW 1014,5 20 58 0,0
19.01.2018 10:00:00 4,4 2,1 4,9 5,4 3 2 12 7 OZO 1015,4 20 53 0,0
19.01.2018 09:00:00 2,5 1,6 1,2 5,4 4 2 16 9 ZZW 1015,9 20 9 0,0
19.01.2018 08:00:00 2,4 1,1 2,0 5,5 5 3 10 5 OZO 1015,4 20 0 0,0
19.01.2018 07:00:00 2,8 1,5 2,0 5,5 2 1 11 6 O 1015,7 20 0 0,0
19.01.2018 06:00:00 2,4 0,8 1,5 5,6 4 2 9 5 OZO 1015,7 20 0 0,0
19.01.2018 05:00:00 1,9 0,4 0,7 5,6 3 1 10 5 OZO 1016,1 20 0 0,0
19.01.2018 04:00:00 3,7 1,1 2,5 5,6 3 2 18 10 ZO 1015,8 20 0 0,0
19.01.2018 03:00:00 5,3 1,9 3,6 5,6 6 4 14 8 WNW 1015,8 20 0 0,0
19.01.2018 02:00:00 7,1 2,0 5,0 5,7 6 3 26 14 W 1015,6 20 0 0,0
19.01.2018 01:00:00 8,0 2,4 4,0 5,7 13 7 25 14 NNO 1016,0 20 0 0,0
19.01.2018 00:00:00 6,2 2,3 2,9 5,7 4 2 18 10 N 1016,7 20 0 0,0
18.01.2018 23:00:00 5,3 1,9 2,0 5,8 8 4 14 8 N 1017,1 20 0 0,0
18.01.2018 22:00:00 3,7 0,7 2,4 5,8 6 3 11 6 ZO 1017,8 20 0 0,0
18.01.2018 21:00:00 4,7 1,4 3,1 5,8 2 1 11 6 N 1017,8 20 0 0,0
18.01.2018 20:00:00 6,8 1,7 5,5 5,8 5 3 16 9 WNW 1017,7 20 0 0,0
18.01.2018 19:00:00 6,6 1,7 4,5 5,8 11 6 15 8 ZW 1017,7 20 0 0,0
18.01.2018 18:00:00 7,7 1,7 6,5 5,7 7 4 21 12 ZW 1017,4 20 0 0,0
18.01.2018 17:00:00 10,9 1,9 10,3 5,5 11 6 27 15 WZW 1016,5 20 50 0,0
18.01.2018 16:00:00 12,4 0,8 14,7 5,3 11 6 19 11 N 1016,0 20 60 0,0
18.01.2018 15:00:00 12,2 1,8 14,6 5,1 11 6 33 18 W 1016,4 20 60 0,0
18.01.2018 14:00:00 12,0 0,7 13,8 4,9 16 9 25 13 N 1016,9 20 60 0,0
18.01.2018 13:00:00 10,3 -0,5 13,5 4,7 16 8 27 14 N 1018,6 20 60 0,0
18.01.2018 12:00:00 8,9 -1,5 11,8 4,7 14 8 23 12 N 1019,7 20 60 0,0
18.01.2018 11:00:00 7,9 -2,2 10,9 4,6 14 7 29 15 NNW 1021,0 20 60 0,0
18.01.2018 10:00:00 6,6 -3,1 5,9 4,7 14 7 32 17 NNW 1021,5 20 60 0,0
18.01.2018 09:00:00 4,6 -3,9 2,8 4,8 12 6 23 12 WNW 1021,5 20 30 0,0
18.01.2018 08:00:00 4,0 -4,0 2,9 4,8 19 10 33 18 N 1021,1 20 0 0,0
18.01.2018 07:00:00 4,1 -3,9 0,8 4,9 9 5 18 10 NNO 1021,2 20 0 0,0
18.01.2018 06:00:00 4,0 -4,7 1,1 5,0 5 3 22 12 NNO 1021,4 20 0 0,0
18.01.2018 05:00:00 4,8 -4,5 1,9 5,1 9 5 16 9 ONO 1021,3 20 0 0,0
18.01.2018 04:00:00 4,8 -4,5 -1,3 5,2 4 2 13 7 NO 1021,4 20 0 0,0
18.01.2018 03:00:00 2,1 -5,1 -0,6 5,3 2 1 12 7 NNW 1022,8 20 0 0,0
18.01.2018 02:00:00 3,8 -4,9 1,4 5,4 7 4 21 12 ZZO 1022,3 20 0 0,0
18.01.2018 01:00:00 5,7 -5,9 4,1 5,5 6 3 44 24 N 1021,8 20 0 0,0
18.01.2018 00:00:00 5,4 -5,6 4,0 5,6 19 11 39 21 N 1022,0 20 0 0,0
17.01.2018 23:00:00 5,6 -6,0 4,6 5,7 18 10 50 27 NNO 1021,4 20 0 0,0
17.01.2018 22:00:00 5,8 -6,1 4,6 5,8 25 13 53 29 N 1021,4 20 0 0,0
17.01.2018 21:00:00 5,6 -6,3 4,2 5,9 27 15 53 28 N 1020,8 20 0 0,0
17.01.2018 20:00:00 5,5 -5,8 4,3 6,0 29 16 50 27 N 1020,0 20 0 0,0
17.01.2018 19:00:00 5,2 -5,5 4,2 6,0 24 13 44 24 N 1019,4 20 0 0,0
17.01.2018 18:00:00 5,9 -6,4 5,0 6,1 23 13 56 30 N 1018,3 20 0 0,0
17.01.2018 17:00:00 6,6 -6,7 6,1 6,1 38 21 74 40 N 1017,3 20 51 0,0
17.01.2018 16:00:00 7,2 -6,9 7,2 6,1 37 20 75 40 NNW 1016,2 20 26 0,0
17.01.2018 15:00:00 6,9 -4,5 7,0 6,1 37 20 66 36 N 1015,1 20 8 0,0
17.01.2018 14:00:00 7,7 -6,1 8,0 6,1 32 17 67 36 NNW 1014,5 20 10 0,0
17.01.2018 13:00:00 7,8 -6,0 7,1 6,2 24 13 77 42 N 1014,3 20 13 0,0
17.01.2018 12:00:00 7,4 -5,0 7,7 6,2 41 22 68 37 NW 1014,6 20 5 0,0
17.01.2018 11:00:00 8,0 -4,8 7,8 6,3 23 12 74 40 N 1013,7 20 11 0,0
17.01.2018 10:00:00 8,1 -5,4 7,8 6,3 32 18 78 42 NNW 1012,6 20 39 0,0
17.01.2018 09:00:00 8,2 -5,0 7,0 6,4 45 24 87 47 NNW 1011,0 20 9 0,0
17.01.2018 08:00:00 8,3 -3,3 7,4 6,4 36 19 90 48 NW 1010,0 20 0 0,0

tt = temperatuur
td = dauwpunt
tt 5cm = temperatuur 5cm
tt -20cm = temperatuur -20cm
ff = windsnelheid
fx = windstoten
dd = windrichting
ppp = luchtdruk
vv = zicht
sd = Zonneschijnduur
rr = neerslag

Weerstations in de omgeving